San Diego, CA

11:56 PM PST on November 19, 2017 (GMT -0800)
San Diego International-Lindbergh

Weather History for KSAN - July, 2014

Change the Weather History Date:

Tuesday, July 22, 2014

  Actual Average Record
Temperature  
Mean Temperature 73 °F 71 °F  
Max Temperature 77 °F 75 °F 99 °F (2006)
Min Temperature 69 °F 66 °F 59 °F (1940)
Degree Days  
Heating Degree Days 0 0  
Month to date heating degree days 0 0  
Since 1 June heating degree days 0 18  
Since 1 July heating degree days 0 0  
Cooling Degree Days 8 6  
Month to date cooling degree days 180 104  
Year to date cooling degree days 531 213  
Since 1 June cooling degree days 292 164  
Growing Degree Days 23 (Base 50)    
Moisture  
Dew Point 62 °F    
Average Humidity 69    
Maximum Humidity 78    
Minimum Humidity 60    
Precipitation  
Precipitation 0.00 in 0.00 in 0.09 in (1874)
Month to date precipitation T 0.02  
Year to date precipitation 2.82 7.05  
Since 1 July precipitation T  
Snow  
Snow 0.00 in - - ()
Month to date snowfall 0.0  
Year to date snowfall 0.0  
Snow Depth 0.00 in    
Sea Level Pressure  
Sea Level Pressure 30.04 in    
Wind  
Wind Speed 9 mph (NW)    
Max Wind Speed 18 mph    
Max Gust Speed 23 mph    
Visibility 10 miles    
Events      
T = Trace of Precipitation, MM = Missing Value Source: NWS Daily Summary

Daily Weather History Graph

Daily Weather History Graph

Search for Another Location

Airport or City:

Trip Planner

Search our weather history database for the weather conditions in past years. The results will help you decide how hot, cold, wet, or windy it might be!

Date:

Astronomy

Jul. 22, 2014 Rise Set
Actual Time 5:56 AM PDT 7:54 PM PDT
Civil Twilight 5:28 AM PDT 8:21 PM PDT
Nautical Twilight 4:55 AM PDT 8:54 PM PDT
Astronomical Twilight 4:19 AM PDT 9:30 PM PDT
Moon 2:30 AM PDT (7/22) 4:37 PM PDT (7/22)
Length of Visible Light 14h 52m
Length of Day
13h 57m
Waning Crescent, 15% of the Moon is Illuminated
Jul 22
Waning Crescent
Jul 26
New
Aug 3
First Quarter
Aug 10
Full
Aug 17
Last Quarter

Hourly Weather History & Observations

Time (PDT) Temp. Dew Point Humidity Pressure Visibility Wind Dir Wind Speed Gust Speed Precip Events Conditions
12:51 AM 70.0 °F 62.1 °F 76% 30.02 in 10.0 mi North 5.8 mph - N/A   Mostly Cloudy
1:51 AM 70.0 °F 62.1 °F 76% 30.03 in 10.0 mi North 4.6 mph - N/A   Overcast
2:51 AM 71.1 °F 63.0 °F 75% 30.04 in 10.0 mi NNW 4.6 mph - N/A   Overcast
3:51 AM 70.0 °F 63.0 °F 78% 30.04 in 10.0 mi North 6.9 mph - N/A   Overcast
4:51 AM 70.0 °F 63.0 °F 78% 30.04 in 10.0 mi NNW 6.9 mph - N/A   Overcast
5:51 AM 70.0 °F 62.1 °F 76% 30.04 in 10.0 mi NNW 9.2 mph - N/A   Overcast
6:51 AM 69.1 °F 61.0 °F 75% 30.04 in 10.0 mi NNW 5.8 mph - N/A   Mostly Cloudy
7:51 AM 70.0 °F 62.1 °F 76% 30.06 in 10.0 mi NW 4.6 mph - N/A   Mostly Cloudy
8:42 AM 71.6 °F 62.6 °F 73% 30.07 in 10.0 mi Calm Calm - N/A   Mostly Cloudy
8:51 AM 72.0 °F 62.1 °F 71% 30.07 in 10.0 mi NW 6.9 mph - N/A   Mostly Cloudy
9:51 AM 73.0 °F 62.1 °F 68% 30.07 in 10.0 mi NW 8.1 mph - N/A   Mostly Cloudy
10:51 AM 73.0 °F 62.1 °F 68% 30.07 in 10.0 mi West 12.7 mph - N/A   Scattered Clouds
11:51 AM 73.9 °F 62.1 °F 66% 30.06 in 10.0 mi WNW 11.5 mph - N/A   Scattered Clouds
12:51 PM 75.9 °F 62.1 °F 62% 30.05 in 10.0 mi WNW 11.5 mph - N/A   Scattered Clouds
1:51 PM 75.9 °F 62.1 °F 62% 30.04 in 10.0 mi WNW 11.5 mph - N/A   Scattered Clouds
2:51 PM 77.0 °F 63.0 °F 62% 30.04 in 10.0 mi NW 11.5 mph 23.0 mph N/A   Scattered Clouds
3:51 PM 75.9 °F 63.0 °F 64% 30.02 in 10.0 mi WNW 16.1 mph - N/A   Scattered Clouds
4:51 PM 75.9 °F 63.0 °F 64% 30.01 in 10.0 mi NW 11.5 mph - N/A   Scattered Clouds
5:51 PM 75.9 °F 64.0 °F 67% 30.00 in 10.0 mi WNW 13.8 mph - N/A   Scattered Clouds
6:51 PM 75.0 °F 63.0 °F 66% 30.00 in 10.0 mi NW 8.1 mph - N/A   Scattered Clouds
7:51 PM 73.9 °F 63.0 °F 68% 30.01 in 10.0 mi NNW 9.2 mph - N/A   Scattered Clouds
8:51 PM 73.0 °F 60.1 °F 64% 30.01 in 10.0 mi NNW 6.9 mph - N/A   Partly Cloudy
9:51 PM 73.0 °F 60.1 °F 64% 30.02 in 10.0 mi NNW 8.1 mph - N/A   Partly Cloudy
10:51 PM 71.1 °F 62.1 °F 73% 30.03 in 10.0 mi North 5.8 mph - N/A   Partly Cloudy
11:51 PM 71.1 °F 63.0 °F 75% 30.03 in 10.0 mi North 4.6 mph - N/A   Partly Cloudy